Flag for U.S.A. Weather past 2 weeks in Tallahassee, Florida, U.S.A.

Now
82 °F

Scattered clouds.


Feels Like: 83 °F
Forecast: 66 / 82 °F
Wind: 8 mph from Northeast

Location: Tallahassee Regional Airport

Current Time: Sep 23, 2014 at 7:33:13 PM

Latest Report: Sep 23, 2014 at 6:53 PM


Visibility: 10 mi

Pressure: 30.02 "Hg

Humidity: 53%

Dew point: 63 °F

Location of TallahasseeLocation

Historic Weather in Tallahassee — Graph

°F

Tallahassee temperature yesterday

Maximum temperature yesterday: 90 °F (at 2:53 PM)
Minimum temperature yesterday: 61 °F (at 6:53 AM)
Average temperature yesterday: 76 °F

Past Weeks' High & Low Weather Summary

 TemperatureHumidityPressure
High95 °F (Sep 12, 2:53 PM)100% (Sep 21, 5:53 AM)30.14 "Hg (Sep 21, 5:53 AM)
Low61 °F (Sep 22, 6:53 AM)33% (Sep 22, 2:53 PM)29.85 "Hg (Sep 17, 5:53 PM)
Average79 °F77%30.00 "Hg
* Reported Sep 8 5:53 PM — Sep 23 5:53 PM, Tallahassee, Weather by CustomWeather, © 2014

Note: Actual official high and low records may vary slightly from our data, if they occured in-between our weather recording intervals... More about our weather records

Advertising

Tallahassee weather history for previous 24 hours

 ConditionsComfort  
Time TempWeatherWind HumidityBarometerVisibility
5:53 PM
Sep 23
83 °FPassing clouds.8 mph53%30.02 "Hg10 mi
4:53 PM84 °FBroken clouds.10 mph49%30.02 "Hg10 mi
3:53 PM85 °FBroken clouds.10 mph48%30.03 "Hg10 mi
2:53 PM86 °FPassing clouds.9 mph48%30.03 "Hg10 mi
1:53 PM85 °FPartly sunny.12 mph51%30.06 "Hg10 mi
12:53 PM84 °FScattered clouds.8 mph51%30.07 "Hg10 mi
11:53 AM82 °FScattered clouds.14 mph53%30.08 "Hg10 mi
10:53 AM79 °FScattered clouds.15 mph58%30.08 "Hg10 mi
9:53 AM76 °FScattered clouds.9 mph64%30.07 "Hg10 mi
8:53 AM72 °FPassing clouds.7 mph73%30.06 "Hg10 mi
7:53 AM70 °FPassing clouds.6 mph81%30.04 "Hg10 mi
6:53 AM70 °FPassing clouds.6 mph81%30.02 "Hg10 mi
5:53 AM71 °FClear.6 mph78%30.01 "Hg10 mi
4:53 AM70 °FClear.5 mph84%30.00 "Hg10 mi
3:53 AM70 °FClear.3 mph84%29.99 "Hg10 mi
2:53 AM71 °FClear.5 mph81%30.00 "Hg10 mi
1:53 AM73 °FPassing clouds.No wind74%30.01 "Hg10 mi
12:53 AM75 °FPassing clouds.5 mph69%30.01 "Hg10 mi
11:53 PM
Sep 22
74 °FClear.7 mph74%30.02 "Hg10 mi
10:53 PM75 °FPassing clouds.9 mph74%30.01 "Hg10 mi
9:53 PM77 °FPassing clouds.No wind66%30.01 "Hg10 mi
8:53 PM77 °FPassing clouds.7 mph69%30.00 "Hg10 mi
7:53 PM78 °FBroken clouds.14 mph69%29.99 "Hg10 mi
Weather by CustomWeather, © 2014

See weather overviewHow to use our weather pages